679  
ASUS44 KEWX 240511  
RWREWX  
SOUTH TEXAS REGIONAL WEATHER ROUNDUP  
NATIONAL WEATHER SERVICE AUSTIN/SAN ANTONIO TX  
1100 PM CST THU JAN 23 2020  
 
NOTE: "FAIR" INDICATED FEW OR NO CLOUDS BELOW 12,000 FEET WITH NO  
SIGNIFICANT WEATHER AND/OR S TO VISIBILITY
.  
 
* - THESE STATIONS ARE NOT NWS OR FAA STATIONS...AND ARE NOT SUBJECT  
TO NWS AND FAA QUALITY CONTROL.
 
 
TXZ171-172-183>190-240600-  
TEXAS HILL COUNTRY AND EDWARDS PLATEAU  
 
CITY SKY/WX TMP DP RH WIND PRES REMARKS
 
JUNCTION CLEAR 45 38 76 CALM 30.14R  
*LLANO CLEAR 48 39 71 CALM 30.16R  
BURNET CLEAR 48 36 63 N5 30.13R WCI 46  
*HORSESHOE BAY CLEAR 43 43 100 S3 30.13R  
*LAGO VISTA CLEAR 48 44 87 CALM 30.12R  
*KERRVILLE CLEAR 44 40 85 CALM 30.12R  
*FREDERICKSBRG CLEAR 43 38 85 CALM 30.12S  
*ROCKSPRINGS CLEAR 48 37 66 NE7 30.16R WCI 45  
*BOERNE CLEAR 43 41 93 CALM 30.13R  
*CASTROVILLE CLEAR 54 47 76 SE5 30.13R  
HONDO CLEAR 48 41 76 NE5 30.11R WCI 46  
*UVALDE CLEAR 51 42 71 NE7 30.11R  
DEL RIO CLEAR 53 36 52 E5 30.09R  
*LAUGHLIN AFB CLEAR 47 39 73 N5 30.09R WCI 45  
*SPOFFORD NOT AVBL  
*EAGLE PASS CLEAR 55 39 54 NE8 30.08R  
CARRIZO SPRGS CLEAR 54 41 62 E5 30.08R  
*FAITH RANCH CLEAR 57 41 54 E7 30.07R  

 
 
TXZ173-191>194-202-209-217>225-228-240600-  
CENTRAL AND SOUTH CENTRAL TEXAS  
 
CITY SKY/WX TMP DP RH WIND PRES REMARKS
 
GEORGETOWN CLEAR 42 41 96 CALM 30.14R  
*TAYLOR CLEAR 40 40 99 CALM 30.12R FOG  
AUSTIN/BERGSTM CLEAR 42 40 92 CALM 30.12R  
AUSTIN/MABRY CLEAR 48 43 82 CALM 30.13R  
*PFLUGERVILLE CLEAR 46 45 93 CALM 30.12S  
SAN MARCOS CLEAR 44 43 96 N8 30.13R WCI 39  
NEW BRAUNFELS CLEAR 48 44 86 N5 30.11R WCI 46  
*RANDOLPH AFB CLEAR 49 45 86 NE6 30.12R WCI 47  
*SEGUIN PTCLDY 46 44 91 CALM 30.16R  
SAN ANTONIO PTCLDY 51 44 77 NE7 30.12R  
STINSON FIELD CLEAR 50 46 86 E5 30.10R WCI 48  
*KELLY FIELD CLEAR 52 45 78 E6 30.09R  
*PLEASANTON CLEAR 52 45 78 E6 30.12R  
*KENEDY CLEAR 52 46 82 E8 30.12S  
*LA GRANGE CLEAR 44 44 100 CALM 30.09F  
*GIDDINGS CLEAR 44 42 94 CALM 30.12R  
*GONZALES CLEAR 49 46 90 E6 30.11S WCI 47  

 
 
TXZ163>164-176>182-195>201-210>213-226-227-235-240600-  
SOUTHEAST TEXAS  
 
CITY SKY/WX TMP DP RH WIND PRES REMARKS
 
COLLEGE STN CLEAR 44 40 85 CALM 30.11R  
*BRYAN CLEAR 43 43 100 CALM 30.12R  
*CALDWELL CLEAR 41 N/A N/A MISG 30.12R HAZE  
*CROCKETT NOT AVBL  
*BRENHAM CLEAR 44 44 97 CALM 30.12R  
HUNTSVILLE MOCLDY 44 40 85 CALM 30.10R  
CONROE FOG 40 39 97 CALM 30.10R VSB 3/4  
HOUSTON BUSH CLEAR 48 44 86 NW5 30.10R WCI 46  
HOUSTON HOBBY FAIR 49 44 83 N7 30.10R WCI 46  
*HOUSTON SW AP FAIR 46 46 97 CALM 30.11R  
PEARLAND FAIR 48 44 86 CALM 30.11R  
HOUSTON HOOKS FAIR 43 40 89 W3 30.11R FOG  
ELLINGTON FLD CLEAR 48 45 87 NW3 30.08R  
SUGAR LAND FAIR 48 45 89 N7 30.10R WCI 45  
*HOUSTON EXEC FAIR 46 45 93 NW5 30.13R WCI 44  
*CLEVELAND MUN FAIR 42 41 97 CALM 30.11R FOG  
*WHARTON CLEAR 47 43 88 N6 30.13R WCI 44  
*COLUMBUS FAIR 41 38 89 CALM 30.13R  
*EAGLE LAKE CLEAR 48 46 93 NW5 30.11 WCI 46  

 
 
TXZ214>216-236>238-240600-  
THE UPPER TEXAS COAST  
 
CITY SKY/WX TMP DP RH WIND PRES REMARKS
 
*ORANGE FAIR 49 46 89 CALM 30.09R  
PORT ARTHUR FAIR 48 45 89 NW6 30.07R WCI 45  
GALVESTON FAIR 55 48 77 N13 30.10R  
ANGLETON FAIR 49 46 90 NW5 30.10R WCI 47  
*BAY CITY CLEAR 51 48 89 CALM 30.11R  
PALACIOS CLEAR 49 45 86 N6 30.12R WCI 46  

 
 
TXZ229>234-239>247-240600-  
TEXAS COASTAL BEND AND RIO GRANDE PLAINS  
 
CITY SKY/WX TMP DP RH WIND PRES REMARKS
 
VICTORIA CLEAR 48 45 89 N6 30.13R WCI 45  
*BEEVILLE NOT AVBL  
ROCKPORT CLEAR 56 48 74 N13 30.11R  
*PORT ARANSAS CLEAR 58 51 79 NE15 30.12R  
*PORT LAVACA NOT AVBL  
*INGLESIDE CLEAR 56 53 88 NE10 30.10R  
CORPUS CHRISTI CLEAR 58 51 78 NE13 30.10R  
CORPUS NAS PTCLDY 59 54 83 NE22 30.10R  
*ROBSTOWN CLEAR 57 49 77 NE9 30.11R  
ALICE CLEAR 55 49 80 NE8 30.09R  
KINGSVILLE NAS CLEAR 57 51 80 NE12 30.08R  
COTULLA CLEAR 57 47 69 E9 30.09R  
LAREDO CLEAR 57 46 66 E8 30.07R  

 
 
TXZ248>255-240600-  
DEEP SOUTH TEXAS  
 
CITY SKY/WX TMP DP RH WIND PRES REMARKS
 
BROWNSVILLE FAIR 61 58 90 NE7 30.06R  
PORT ISABEL FAIR 63 58 83 NE8 30.06R  
HARLINGEN N/A 59 57 93 NE7 30.06R  
*HEBBRONVILLE CLEAR 54 45 70 E5 30.09R  
MCALLEN CLEAR 63 56 78 E6 30.08R  
*WESLACO MOCLDY 57 54 88 CALM 30.07R  
FALFURRIAS CLEAR 54 43 66 CALM 30.09R  
EDINBURG FAIR 57 53 86 CALM 30.09R  
*ZAPATA FAIR 60 47 61 E3 30.08R  

 
 
TXZ213>215-236>238-242>244-246-247-251-254-255-240600-  
CMAN STATIONS  
 
STATION/POSITION TIME TEMP WIND PRES WAVE
 
AIR SEA DIR/SP/G HT/PER  
(UTC) (F) (DEG/KT/KT) (MB) (FT/S)  
SABINE PASS 0430 60 340/ 8/ 12 1019.9  
NORTH JETTY/GLS 0418 53 59 360/ 8/ 10 1017.4  
EAGLE POINT 0430 56 360/ 6/ 10 1018.1  
MORGANS POINT 0430 60 350/ 8/ 10 1018.7  
PORT O'CONNOR 0430 63 10/ 14/ 18 1019.8  
PORT ARANSAS 0500 58 61 10/ 20/ 22 1018.8  
MALAQUITE BEACH 0430 63 10/ 20/ 22 1018.2  
BAFFIN BAY 0430 67 10/ 12/ 16 1018.6  
PORT ISABEL 0430 66 20/ 7/ 9 1017.8  

 
 
 
CLICK HERE TO GO TO PREVIOUS BULLETINS.

The Nexlab TX Page Main Text Page